Torna al catalogo

STARLINK-34523

AttivoComunicazioniVLEO
NORAD 64475·PAYLOAD·🇺🇸 United States

Lanciato Jun 23, 2025 da Cape Canaveral Space Force Station

Loading…

Prossimi Passaggi (prossime 24 ore)

TLE

AggiornatoSource: CelesTrak SupGP

Epoca: Sep 14, 2026, 20:41 UTC

1 64475C 25133D   26257.86229167 -.00012344  00000+0 -36490-3 0  2570
2 64475  53.1590 312.4233 0001143  82.0007 210.3852 15.34379698    12

Traccia STARLINK-34523 in tempo reale con AllMySat

Download on the App Store